Location: Bayshore Village Mobile Home Park
(26.6945°N, 81.8642°W)
Time: 16:14:10
(UTC+00:00)

Cosmos 1656 Rocket - Pass Details

Date: 17 June 2021
Orbit: 794 x 847 km, 71.1° (Epoch: 26 July)

Event Time Altitude Azimuth Distance (km) Brightness Sun altitude
Rises 08:13:47 0° 333° (NNW) 3,407 7.1 -25.9°
Reaches altitude 10° 08:16:18 10° 328° (NNW) 2,467 6.3 -25.6°
Enters shadow 08:20:45 44° 286° (WNW) 1,156 4.1 -24.9°
